This is the latest recevied weather packets stored in our database for station/object N0QV. If no packets are shown the sender has not sent any weather packets the latest 10 day(s).
| Time | Temp. | Humidity | Pressure | Rain* | Wind** | Luminosity | Snow |
|---|---|---|---|---|---|---|---|
| 1778034223 | 7.78° C | 43% | 1013.1 hPa | 0 mm | - | 0 W/m² | - |
| 1778033922 | 7.78° C | 42% | 1013.4 hPa | 0 mm | - | 0 W/m² | - |
| 1778033618 | 7.78° C | 41% | 1013.3 hPa | 0 mm | - | 0 W/m² | - |
| 1778033315 | 8.33° C | 41% | 1012.9 hPa | 0 mm | - | 0 W/m² | - |
| 1778033013 | 8.33° C | 41% | 1012.9 hPa | 0 mm | - | 0 W/m² | - |
| 1778032710 | 8.33° C | 41% | 1012.9 hPa | 0 mm | - | 0 W/m² | - |
| 1778032408 | 8.89° C | 40% | 1012.8 hPa | 0 mm | - | 0 W/m² | - |
| 1778032104 | 8.89° C | 40% | 1012.8 hPa | 0 mm | - | 0 W/m² | - |
| 1778031801 | 8.89° C | 40% | 1012.7 hPa | 0 mm | - | 0 W/m² | - |
| 1778031498 | 8.89° C | 40% | 1012.5 hPa | 0 mm | - | 0 W/m² | - |
| 1778031195 | 8.89° C | 39% | 1012.4 hPa | 0 mm | - | 0 W/m² | - |
| 1778030891 | 8.89° C | 39% | 1012.4 hPa | 0 mm | - | 0 W/m² | - |
| 1778030589 | 9.44° C | 38% | 1012.4 hPa | 0 mm | - | 0 W/m² | - |
| 1778030286 | 9.44° C | 38% | 1012.2 hPa | 0 mm | - | 1 W/m² | - |
| 1778029982 | 9.44° C | 38% | 1012.3 hPa | 0 mm | - | 3 W/m² | - |
| 1778029680 | 9.44° C | 38% | 1012.1 hPa | 0 mm | - | 4 W/m² | - |
| 1778029377 | 9.44° C | 37% | 1012.2 hPa | 0 mm | - | 7 W/m² | - |
| 1778029075 | 9.44° C | 38% | 1011.9 hPa | 0 mm | - | 10 W/m² | - |
| 1778028771 | 9.44° C | 37% | 1012.1 hPa | 0 mm | - | 15 W/m² | - |
| 1778028467 | 9.44° C | 36% | 1011.9 hPa | 0 mm | - | 15 W/m² | - |
| 1778028165 | 10° C | 37% | 1012 hPa | 0 mm | - | 17 W/m² | - |
| 1778027860 | 10° C | 37% | 1012 hPa | 0 mm | - | 17 W/m² | - |
| 1778027557 | 10° C | 36% | 1011.9 hPa | 0 mm | - | 18 W/m² | - |
| 1778027253 | 10° C | 37% | 1011.6 hPa | 0 mm | - | 23 W/m² | - |
| 1778026949 | 10° C | 37% | 1011.9 hPa | 0 mm | - | 31 W/m² | - |
* Rain latest hour (hover to see other rain measurements)
** Current wind speed in m/s (hover to see current wind gust speed)